Flag for Norway Weather past 2 weeks in Tønsberg, Norway

Now
50 °F

Light rain. Fog.


Feels Like: 40 °F
Forecast: 54 / 55 °F
Wind: 45 mph from South

Location: Oseberg

Current Time: Oct 23, 2014 at 2:11:37 AM

Latest Report: Oct 23, 2014 at 12:50 AM


Visibility: 1 mi

Pressure: 29.68 "Hg

Humidity: 94%

Dew point: 48 °F

Location of TønsbergLocation

Historic Weather in Tønsberg — Graph

°F

Tønsberg temperature yesterday

Maximum temperature yesterday: 48 °F (at 5:20 PM)
Minimum temperature yesterday: 43 °F (at 7:20 AM)
Average temperature yesterday: 46 °F

Past Weeks' High & Low Weather Summary

 TemperatureHumidityPressure
High55 °F (Oct 14, 2:50 PM)100% (Oct 18, 10:50 AM)29.95 "Hg (Oct 18, 10:50 AM)
Low43 °F (Oct 22, 7:20 AM)50% (Oct 16, 10:50 PM)29.06 "Hg (Oct 21, 12:50 PM)
Average51 °F78%29.60 "Hg
* Reported Oct 8 12:50 AM — Oct 23 12:50 AM, Tønsberg, Weather by CustomWeather, © 2014

Note: Actual official high and low records may vary slightly from our data, if they occured in-between our weather recording intervals... More about our weather records

Advertising

Tønsberg weather history for previous 24 hours

 ConditionsComfort  
Time TempWeatherWind HumidityBarometerVisibility
12:50 AM
Oct 23
50 °FLight rain. Fog.45 mph94%29.68 "Hg1 mi
11:50 PM
Oct 22
48 °FLight rain. Fog.46 mph100%29.68 "Hg1 mi
10:50 PM48 °FLight rain. Fog.44 mph94%29.71 "Hg1 mi
9:50 PM48 °FLight rain. Fog.41 mph87%29.74 "Hg1 mi
8:50 PM48 °FPassing clouds.38 mph76%29.77 "HgN/A
7:50 PM48 °FSprinkles. Passing clouds.35 mph76%29.80 "HgN/A
6:50 PM48 °FPartly sunny.32 mph66%29.80 "HgN/A
5:50 PM48 °FBroken clouds.25 mph62%29.83 "HgN/A
5:20 PM48 °FPartly sunny.22 mph54%29.83 "HgN/A
4:50 PM46 °FPartly sunny.18 mph62%29.83 "HgN/A
4:20 PM46 °FScattered clouds.17 mph66%29.83 "HgN/A
3:50 PM46 °FScattered clouds.16 mph66%29.83 "HgN/A
3:20 PM46 °FPartly sunny.14 mph62%29.86 "HgN/A
2:50 PM46 °FScattered clouds.9 mph62%29.86 "HgN/A
2:20 PM46 °FPartly sunny.9 mph62%29.86 "HgN/A
1:50 PM46 °FScattered clouds.7 mph62%29.86 "HgN/A
1:20 PM46 °FScattered clouds.12 mph66%29.86 "HgN/A
12:50 PM45 °FBroken clouds.5 mph76%29.89 "HgN/A
12:20 PM45 °FSprinkles. Partly sunny.14 mph76%29.89 "HgN/A
11:50 AM46 °FScattered showers. Scattered clouds.10 mph62%29.86 "HgN/A
11:20 AM45 °FScattered showers. Partly sunny.12 mph71%29.86 "HgN/A
10:50 AM45 °FSprinkles. Broken clouds.15 mph71%29.86 "HgN/A
10:20 AM45 °FScattered showers. Scattered clouds.16 mph71%29.83 "HgN/A
9:50 AM45 °FScattered clouds.17 mph66%29.83 "HgN/A
9:20 AM45 °FPartly sunny.18 mph71%29.80 "HgN/A
8:50 AM43 °FScattered showers. Passing clouds.20 mph81%29.80 "HgN/A
8:20 AM43 °FSprinkles. Passing clouds.23 mph81%29.77 "Hg6 mi
7:50 AM45 °FPassing clouds.24 mph71%29.77 "HgN/A
7:20 AM43 °FPartly cloudy.29 mph81%29.74 "HgN/A
6:50 AM45 °FLight rain. Passing clouds.28 mph81%29.71 "HgN/A
5:50 AM45 °FSprinkles. Passing clouds.31 mph81%29.68 "HgN/A
4:50 AM45 °FLight rain. Passing clouds.31 mph81%29.65 "Hg6 mi
3:50 AM45 °FPassing clouds.40 mph81%29.59 "HgN/A
2:50 AM45 °FOvercast.44 mph76%29.53 "HgN/A
Weather by CustomWeather, © 2014

See weather overviewHow to use our weather pages